Terminal Aerodrome Forecast
Issued by NWS Sterling, VA

Current Version | Previous Version | Text Only | Print | Product List | Glossary Off
Versions: 1 2 3 4 5 6 7 8 9 10 11 12 13 14 15 16 17 18 19 20 21 22 23 24 25 26 27 28 29 30 31 32

328
FTUS41 KLWX 012038 AAA
TAFIAD
TAF AMD
KIAD 012038Z 0121/0224 10007KT P6SM OVC009
     FM020100 10005KT 3SM -SHRA VCTS BKN008 OVC015CB
     FM020400 10005KT 1 1/2SM BR OVC003
     FM020800 10004KT 1/2SM FG OVC003
     FM021200 19004KT 3/4SM BR BKN003
     FM021600 24008KT P6SM BKN035
     FM022100 26008KT P6SM BKN080=

USA.gov is the U.S. government's official web portal to all federal, state and local government web resources and services.